GPS BIII-1

Last updated on Sun Apr 12 2026 00:02:39 GMT+0000 (Coordinated Universal Time)

1 43873U 18109A 26100.90169476 .00000057 00000+0 00000+0 0 9995 2 43873 55.6403 94.8397 0038059 198.9514 302.1223 2.00558697 53724
UTC large
Height (km)
Speed (km/s)
/
Latitude / Longitude
Inclination (degrees)
Orbital Period (minutes)
Azimuth
Elevation
Range (km)
Doppler Factor

Next 0 passes for location: London (51.5072 / 0.1276)

Sorry there are no passes over London.